Location: Lane
(33.5226°N, 79.8788°W)
Time: 05:23:39
(UTC+00:00)

SR - Pass Details

Date: 04 October 2022
Orbit: 577 x 874 km, 66.7° (Epoch: 01 December)

Event Time Altitude Azimuth Distance (km) Brightness Sun altitude
Rises 23:51:48 0° 162° (SSE) 3,374 ? -11.7°
Reaches altitude 10° 23:55:04 10° 142° (SE) 2,480 ? -12.3°
Enters shadow 23:58:28 17° 106° (ESE) 2,050 ? -13.1°
Maximum altitude 23:58:39 17° 104° (ESE) 2,050 - -13.1°
Drops below altitude 10° 00:02:18 10° 65° (ENE) 2,526 - -13.9°
Sets 00:05:39 0° 47° (NE) 3,465 - -14.6°
